Location: Cactus School
(34.5700°N, 118.0931°W)
Time: 20:25:28
(UTC-08:00)

Vanguard 1 Rocket - Visible Passes

Search period start: 19 November 2019 00:00
Search period end: 29 November 2019 00:00
Orbit: 651 x 4226 km, 34.3° (Epoch: 18 November)

Date Brightness Start Highest point End Pass type
(mag) Time Alt. Az. Time Alt. Az. Time Alt. Az.
19 Nov 9.7 03:09:53 13° E 03:09:53 13° E 03:10:27 10° E visible
19 Nov 7.1 05:27:10 18° W 05:30:37 85° S 05:37:25 10° E visible
20 Nov 6.8 04:20:05 77° E 04:20:05 77° E 04:25:06 10° E visible
21 Nov 9.7 03:12:58 13° E 03:12:58 13° E 03:13:33 10° E visible
21 Nov 7.1 05:30:16 18° W 05:33:43 77° S 05:40:19 10° ESE visible
22 Nov 6.7 04:23:10 79° ESE 04:23:10 79° ESE 04:28:08 10° E visible
23 Nov 9.6 03:16:03 13° E 03:16:03 13° E 03:16:38 10° E visible
23 Nov 7.2 05:33:21 17° W 05:36:48 64° SSW 05:43:09 10° ESE visible
24 Nov 6.7 04:26:14 78° SE 04:26:14 78° SE 04:31:09 10° E visible
25 Nov 9.6 03:19:08 13° E 03:19:08 13° E 03:19:44 10° E visible
25 Nov 7.5 05:36:25 16° W 05:39:53 50° SSW 05:45:52 10° ESE visible
26 Nov 6.8 04:29:19 69° S 04:29:19 69° S 04:34:08 10° ESE visible
27 Nov 9.6 03:22:13 14° E 03:22:13 14° E 03:22:49 10° E visible
27 Nov 7.9 05:39:30 14° W 05:42:56 36° SSW 05:48:22 10° SE visible
27 Nov 11.0 21:07:04 10° SSW 21:08:16 12° S 21:08:16 12° S visible
28 Nov 7.0 04:32:25 55° S 04:32:25 55° S 04:37:01 10° ESE visible
28 Nov 10.9 19:57:04 10° S 20:01:10 13° SSE 20:01:10 13° SSE visible
